    Observer details:
    300 Bisei Spaceguard Center--BATTeRS.  Observers A. Asami, N. Hashimoto.
        1.0-m f/3.0 reflector + CCD.
    718 Tooele.  Observer P. Wiggins.  0.35-m f/5.5 Schmidt-Cassegrain + CCD.
    900 Moriyama.  Observer Y. Ikari.  0.26-m f/7.0 reflector + CCD.
    958 Observatoire de Dax.  Observers P. Dupouy, J. B. de Vanssay.  Measurer
        P. Dupouy.  0.43-m f/2.7 reflector + CCD.
    C23 Olmen.  Observer A. Diepvens.  0.20-m f/9 refractor + CCD.
    C41 MASTER-II Observatory, Kislovodsk.  Observers D. Denisenko, E. Gorbovskoy,
        V. Lipunov, N. Tiurina, P. Balanutsa, A. Parkhomenko, A. Tlatov,
        D. Dormidontov, V. Senik.  Measurers K. Ivanov, S. Yazev, N. Budnev,
        E. Konstantinov, O. Chuvalaev, O. Gress, Y. Sergienko, D. Varda,
        E. Sinyakov, V. Krushinsky, I. Zalozhnih, A. Bourdanov, V. Chazov,
        A. Kuznetsov, V. Shumkov, S. Shurpakov.  0.4-m f/2.5 reflector + CCD.
    C77 Bernezzo Observatory.  Observer A. Mantero.  0.25-m f/4 reflector + CCD.
    F51 Pan-STARRS 1, Haleakala.  Observers B. Gibson, T. Goggia, N. Primak,
        A. Schultz, M. Willman.  Measurers B. Bolin, K. Chambers, S. Chastel,
        L. Denneau, H. Flewelling, M. Huber, E. Magnier, E. Schunova, R. Wainscoat,
        C. Waters.  1.8-m Ritchey-Chretien + CCD.
    G40 Slooh.com Canary Islands Observatory.  Observer B. Lutkenhoner.  0.35-m
        f/11 Schmidt-Cassegrain + CCD.
    H21 Astronomical Research Observatory, Westfield.  Observer R. Holmes.
        Measurers L. Buzzi, S. Foglia, T. Vorobjov, T. Linder.  0.61-m f/4.5
        astrograph + CCD.
    I58 Betera.  Observer O. Rodrigo.  Measurer M. Gil.  0.25-m f/6.3
        Schmidt-Cassegrain + CCD.
    J08 Observatorio Zonalunar, Puzol.  Observer A. Carreno.  Measurer J. Piqueras.
        0.20-m f/5 Newtonian reflector + CCD.
    J42 Puzol.  Observer A. Aznar.  0.25-m Schmidt-Cassegrain + CCD.
    J95 Great Shefford.  Observer P. Birtwhistle.  0.40-m f/6.0 Schmidt-Cassegrain
        + CCD.
    K32 Maritime Alps Observatory, Cuneo.  Observer G. Locatelli.  0.25-m f/6.3
        Schmidt-Cassegrain + CCD.
    K38 M57 Observatory, Saltrio.  Observer G. Baj.  0.25-m f/8 Ritchey-Chretien
        + CCD.
    L04 ROASTERR-1 Observatory, Cluj-Napoca.  Observer L. Hudin.  0.3-m f/5.0
        reflector + CCD.
    O75 ISON-Hureltogoot Observatory.  Observers T. Namkhai, S. Schmalz.  Measurer
        S. Schmalz.  0.4-m f/2.3 reflector + CCD.
    Z99 Clixby Observatory, Cleethorpes.  Observer A. Mickleburgh.  0.36-m f/8
        Schmidt-Cassegrain + CCD.
    
    Orbital elements:
    2014 VQ                                                  Earth MOID = 0.0905 AU
    Epoch 2014 Dec. 9.0 TT = JDT 2457000.5                  MPC
    M  18.82310              (2000.0)            P               Q
    n   0.56632399     Peri.  169.41887     +0.73424473     -0.63018651
    a   1.4468586      Node   232.69629     +0.59737945     +0.77643608
    e   0.2557857      Incl.   18.50698     +0.32252514     -0.00345969
    P   1.74           H   20.2           G   0.15           U   7
    Residuals in seconds of arc
    141105 F51  0.1-  0.1+    141106 300  0.1+  0.1-    141106 K38  0.3-  0.7-
    141105 F51  0.1-  0.1+    141106 300  0.2-  0.1-    141106 C23  0.3+  0.1-
    141105 F51  0.0   0.0     141106 300  0.1+  0.1-    141106 C23  0.1-  0.4-
    141105 F51  0.1-  0.1-    141106 300  0.1-  0.2-    141106 C23  0.1+  0.2-
    141105 C41  0.5-  0.3+    141106 300  0.1+  0.1+    141106 C23  0.2+  0.4-
    141105 C41  0.8+  0.3-    141106 300  0.3+  0.2+    141106 C23  0.2-  0.1-
    141105 C41  0.9+  0.7-    141106 O75  0.2-  0.1-    141106 C23  0.3+  0.3-
    141105 C41  0.2-  0.9+    141106 O75  0.4-  0.4-    141106 K38  0.4-  0.5-
    141105 C41  0.4+  0.6+    141106 O75  1.1+  1.0-    141106 K32  0.9-  1.7+
    141105 L04  0.0   0.2+    141106 O75  0.3+  0.3+    141106 K38  0.4-  0.5-
    141105 L04  0.2-  0.0     141106 900  0.1+  0.1+    141106 K32  0.8-  1.7+
    141105 L04  0.3-  0.0     141106 900  0.0   0.2-    141106 K32  0.8-  1.6+
    141105 L04  0.0   0.1-    141106 900  0.5-  0.4-    141106 K38  0.2-  0.6-
    141105 L04  0.0   0.0     141106 900  0.2+  0.1-    141106 K38  0.0   0.6-
    141105 L04  0.1+  0.1-    141106 J08  0.3-  0.7+    141106 K38  0.3-  0.6-
    141105 958  0.5+  1.0-    141106 J08  0.9-  0.6+    141107 G40  0.1-  0.3-
    141105 J95  0.0   0.1+    141106 J08  1.1-  0.5+    141107 G40  0.1+  0.3-
    141105 958  0.4+  1.0-    141106 J08  1.1-  0.7+    141107 718  0.5+  0.5-
    141105 J95  0.1+  0.2+    141106 J08  0.8-  0.7+    141107 718  0.1+  0.0
    141105 J95  0.1+  0.2+    141106 C77  0.5+  0.1-    141107 718  0.1+  0.4+
    141105 958  0.4+  1.0-    141106 C77  0.8+  0.1-    141107 718  0.6+  0.1+
    141105 958  0.3+  1.1-    141106 C77  1.1-  1.3+    141107 718  0.3-  0.5-
    141106 H21  0.2-  0.1+    141106 J42  0.3-  0.7+    141107 718  0.0   0.3-
    141106 H21  0.0   0.3+    141106 J42  1.8+  0.3+    141107 718  0.1+  0.1+
    141106 H21  0.0   0.2+    141106 J42  0.6+  0.4+    141107 900  0.1-  0.2-
    141106 H21  0.0   0.0     141106 I58  0.7+  0.2-    141107 900  0.2-  0.0
    141106 Z99  0.2-  0.2-    141106 I58  0.5+  0.3-    141107 900  0.2+  0.1-
    141106 Z99  0.0   0.1-    141106 I58  0.4+  0.6-
    141106 Z99  0.1-  0.2-    141106 I58  0.8+  0.4-
    
    Ephemeris:
    2014 VQ                  a,e,i = 1.45, 0.26, 19                  q = 1.0768
    Date    TT    R. A. (2000) Decl.     Delta      r     Elong.  Phase     V
    2014 10 08    21 46 24.8 +67 54 15   0.2340  1.1029   110.4    58.1    19.4
    ...
    2014 10 23    23 08 00.1 +65 31 26   0.1612  1.0829   119.2    53.4    18.4
    ...
    2014 10 31    00 20 31.8 +58 42 08   0.1253  1.0778   130.0    44.9    17.6
    ...
    2014 11 06    01 16 33.6 +47 40 03   0.1040  1.0767   143.5    33.2    16.8
    2014 11 07    01 25 15.0 +45 11 05   0.1013  1.0768   146.2    30.8    16.7
    2014 11 08    01 33 40.2 +42 30 56   0.09890 1.0769   149.1    28.2    16.6
    ...
    2014 11 14    02 17 47.0 +23 28 47   0.09218 1.0790   165.5    13.3    16.0
    ...
    2014 11 22    03 00 04.5 -01 25 50   0.1062  1.0853   155.5    22.2    16.6
    ...
    2014 12 07    03 46 26.2 -23 59 32   0.1753  1.1076   130.7    42.4    18.3
    
    A. U. Tomatic                (C) Copyright 2014 MPC           M.P.E.C. 2014-V34
    

    Read MPEC 2014-V33 Read MPEC 2014-V35


    MPEC number:

    Enter an MPEC number in one of the following forms:

    • 1997-B01 (the full form)
    • J97B01 (the packed version of the full form)
    • B01 (the abbreviated form)